This demonstration page uses our WeatherBlox Daily Observations layout. Learn more.

39.29038, -76.61219

Hourly Observations for February 26, 2020

Temp ( °F °C ) Dew Point ( °F °C ) Humidity (%) Winds ( mph kmh ) Pressure ( in mb ) Visibility ( mi km ) Precip ( " mm )
12:54 am 00:54 undefined 50 10 48 8.9 93 93 undefined N/A 29.88 1012 N/A 0 0
1:54 am 01:54 undefined 49 9.4 48 8.9 97 97 undefined N/A 29.87 1012 N/A 0 0
2:54 am 02:54 undefined 49 9.4 48 8.9 97 97 undefined N/A 29.87 1012 N/A 0 0
3:54 am 03:54 undefined 49 9.4 48 8.9 97 97 undefined N/A 29.86 1011 N/A 0 0
4:54 am 04:54 undefined 50 10 47 8.3 89 89 undefined N/A 29.86 1011 N/A 0 0
5:54 am 05:54 undefined 49 9.4 47 8.3 93 93 undefined N/A 29.88 1012 N/A 0 0
6:54 am 06:54 undefined 49 9.4 47 8.3 93 93 undefined N/A 29.9 1012 N/A 0 0
7:54 am 07:54 undefined 49 9.4 47 8.3 93 93 undefined N/A 29.92 1013 N/A 0 0
8:54 am 08:54 undefined 49 9.4 47 8.3 93 93 undefined N/A 29.94 1014 N/A 0 0
9:54 am 09:54 undefined 49 9.4 47 8.3 93 93 undefined N/A 29.95 1014 N/A 0 0
10:54 am 10:54 undefined 50 10 46 7.8 86 86 undefined N/A 29.94 1014 N/A 0 0
11:54 am 11:54 undefined 50 10 46 7.8 86 86 undefined N/A 29.9 1013 N/A 0 0
12:54 pm 12:54 undefined 50 10 46 7.8 86 86 undefined N/A 29.88 1012 N/A 0 0
1:54 pm 13:54 undefined 50 10 46 7.8 86 86 undefined N/A 29.85 1011 N/A 0 0
2:54 pm 14:54 undefined 50 10 46 7.8 86 86 undefined N/A 29.82 1010 N/A 0 0
3:54 pm 15:54 undefined 49 9.4 45 7.2 86 86 undefined N/A 29.78 1009 N/A 0 0
4:54 pm 16:54 undefined 49 9.4 45 7.2 86 86 undefined N/A 29.78 1008 N/A 0 0
5:54 pm 17:54 undefined 49 9.4 45 7.2 86 86 undefined N/A 29.75 1008 N/A 0 0
6:54 pm 18:54 undefined 48 8.9 45 7.2 89 89 undefined N/A 29.72 1007 N/A 0 0
7:54 pm 19:54 undefined 48 8.9 45 7.2 89 89 undefined N/A 29.67 1005 N/A 0 0
8:54 pm 20:54 undefined 47 8.3 45 7.2 93 93 undefined N/A 29.64 1004 N/A 0 0
9:54 pm 21:54 undefined 46 7.8 45 7.2 96 96 undefined N/A 29.59 1002 N/A 0.01 0.254
10:54 pm 22:54 undefined 46 7.8 45 7.2 96 96 undefined N/A 29.53 1000 N/A 0.08 2.032
11:54 pm 23:54 undefined 46 7.8 44 6.7 93 93 undefined N/A 29.56 1001 N/A 0.05 1.27

Powered by AerisWeather